Regional Weather Roundup
Issued by NWS Sterling, VA

Home | Current Version | Previous Version | Text Only | Print | Product List | Glossary Off
Versions: 1 2 3 4 5 6 7 8 9 10 11 12 13 14 15 16 17 18 19 20 21 22 23 24 25 26 27 28 29 30 31 32 33 34 35 36 37 38 39 40 41 42 43 44 45 46 47 48 49 50

000
ASUS41 KLWX 190610
RWRLWX

REGIONAL WEATHER ROUNDUP
NATIONAL WEATHER SERVICE BALTIMORE MD/WASHINGTON DC
200 AM EDT FRI SEP 19 2014

Note: "FAIR" indicates few or no clouds below 12,000 feet
with no significant weather and/or obstructions to visibility.
 TC=TEMPERATURE CELSIUS

 * =Non NWS site. Station does not report precipitation (e.g. rain,
    snow, etc.), thunder, or fog.

DCZ001-MDZ009-015-VAZ040>042-051-053>054-190700-
WASHINGTON METRO

CITY           SKY/WX    TMP DP  RH WIND       PRES   REMARKS
WASHINGTON NAT CLEAR     66  60  81 NE3       30.13R
DULLES         CLEAR     57  53  86 NW7       30.13R
ANDREWS AFB    CLEAR     58  58  99 CALM      30.12R
QUANTICO       CLEAR     62  59  90 NW6       30.13R
COLLEGE PARK*  CLEAR     57  57 100 CALM      30.12S
LEESBURG*      CLEAR     55  55 100 CALM      30.15R
MANASSAS*      CLEAR     55  55 100 CALM      30.13R
GAITHERSBURG*  CLEAR     54  54 100 CALM      30.17S

$$

MDZ006>007-011-014-190700-
BALTIMORE METRO

CITY           SKY/WX    TMP DP  RH WIND       PRES   REMARKS
BWI AIRPORT    CLEAR     55  54  96 CALM      30.13R
MD SCIENCE CTR   N/A     63  57  81 MISG      30.13R
MARTIN STATE   CLEAR     57  57 100 CALM      30.14R
ANNAPOLIS      CLEAR     65  63  93 N3        30.11S FOG
FORT MEADE*    CLEAR     52  50  93 CALM      30.15R

$$

MDZ012-015-019>023-190700-
MARYLAND EASTERN SHORE

CITY           SKY/WX    TMP DP  RH WIND       PRES   REMARKS
OCEAN CITY     CLOUDY    61  56  83 CALM      30.11R
SALISBURY      CLOUDY    64  58  80 CALM      30.11R
BAY BRIDGE AP*   N/A     59  57  94 CALM      30.12R
CAMBRIDGE*       N/A     59  55  88 CALM      30.11R
EASTON*        CLEAR     59  59 100 CALM      30.15R

$$

MDZ017>025-190700-
SOUTHERN MARYLAND

CITY           SKY/WX    TMP DP  RH WIND       PRES   REMARKS
PATUXENT RIVER CLEAR     57  55  93 W3        30.11R
ST INIGOES     CLEAR     57  53  86 CALM      30.11R
LEONARDTOWN*   CLEAR     55  54  94 CALM      30.13R

$$

MDZ003>005-190700-
NORTH CENTRAL MARYLAND

CITY           SKY/WX    TMP DP  RH WIND       PRES   REMARKS
FREDERICK*     CLEAR     54  52  94 CALM      30.18R
HAGERSTOWN APT MOCLDY    56  47  71 CALM      30.15R
WESTMINSTER*   CLEAR     54  48  82 CALM      30.15R

$$

MDZ501>502-190700-
WESTERN MARYLAND

CITY           SKY/WX    TMP DP  RH WIND       PRES   REMARKS
OAKLAND*       PTCLDY    50  43  76 SE5       30.20R
CUMBERLAND*    PTCLDY    54  46  76 N5        30.20R

$$

VAZ025>031-190700-
SHENANDOAH VALLEY

CITY           SKY/WX    TMP DP  RH WIND       PRES   REMARKS
WINCHESTER*    PTCLDY    52  46  82 NW5       30.15R
STAUNTON*      CLOUDY    63  52  69 N5        30.16R

$$

WVZ021-048>050-054>055-190700-
EASTERN WEST VIRGINIA PANHANDLE

CITY           SKY/WX    TMP DP  RH WIND       PRES   REMARKS
MARTINSBURG    MOCLDY    53  47  79 CALM      30.15R
PETERSBURG*    PTCLDY    52  50  93 CALM      30.18R

$$

VAZ036>039-050-190700-
CENTRAL FOOTHILLS

CITY           SKY/WX    TMP DP  RH WIND       PRES   REMARKS
CHARLOTTESVILL MOCLDY    61  59  93 CALM      30.12R
ORANGE*        MOCLDY    59  57  94 CALM      30.14R FOG

$$

VAZ055>057-190700-
NORTH AND CENTRAL PIEDMONT

CITY           SKY/WX    TMP DP  RH WIND       PRES   REMARKS
FREDERICKSBRG* CLEAR     60  60 100 CALM      30.11S
STAFFORD*      CLEAR     55  55 100 CALM      30.16R FOG

$$

NCZ024-NYZ072-PAZ021-071-VAZ022-071-190700-
OTHER REGIONAL OBSERVATIONS

CITY           SKY/WX    TMP DP  RH WIND       PRES   REMARKS
NEW YORK CITY  CLEAR     61  48  62 NE6       30.18R
PHILADELPHIA   PTCLDY    62  49  62 N14       30.13R
PITTSBURGH     PTCLDY    54  49  83 NE6       30.19R
ROANOKE        MOCLDY    63  60  90 CALM      30.13R
RICHMOND       CLOUDY    64  58  80 CALM      30.11R
RALEIGH        MOCLDY    68  59  73 S5        30.09R

$$

ANZ530>537-190700-
MARINE OBSERVATIONS

STATION/POSITION TIME  TEMP    WIND        PRES
                       AIR SEA DIR/SP/G
                 (UTC) (F)     (DEG/KT/KT) (MB)
THOMAS PT LIGHT  0600   67 74  340/  5/  6 1020.7R
BALT KEY BRIDGE  0600   65     300/  4/  5 1019.9R
COVE POINT       0600   68     230/  1/  2 1019.5R
LEWISETTA        0600   65 74  240/  2/  3 1019.2R
SOLOMONS ISLAND  0600      76                N/A
PINEY POINT      0600           60/  4/  5   N/A

$$



USA.gov is the U.S. government's official web portal to all federal, state and local government web resources and services.